IRIDIUM 33 DEB, 36497

Orbit data source: Space-Track

IRIDIUM 33 DEB, 36497 is space debris in LEO originally from a launch on Sun, 14 Sep 1997 UTC launched from the Tyuratam Missile And Space Complex (TTMTR). The debris from Iridium 33, an American commercial communications satellite, has been tracked extensively since its accidental collision with the defunct Russian satellite Cosmos 2251 in 2009. This event, occurring at high speed in low Earth orbit (LEO), generated thousands of pieces of space debris, significantly increasing the risk of further collisions. The Iridium 33 debris cloud has impacted space traffic management and orbital debris mitigation strategies, making it a subject of ongoing study in space situational awareness.

Loading next visibility...
Identifier
36497, 1997-051WP
Orbit
LEO
Country
Flag of USUS
Related business
Manufacturer
Unknown
Mission
Spacecraft
Bus & Motor
Unknown
Mass
Unknown
Launch date (UTC)
1997-09-14 (29 years ago)
Launch vehicle
Unknown
Launch site
Tyuratam Missile And Space Complex (TTMTR)
Object type
Payload
Rocket body
Debris
Shape & HBR
Unknown shape, 0.1 m
Radar Cross Section
Medium (>0.1 m² and <1 m²)

Expand to show TLE details & history
Last TLE update: 1 week ago

TLE from 1 week ago
0 IRIDIUM 33 DEB
1 36497U 97051WP  26162.77927300  .00006588  00000-0  11791-2 0  9991
2 36497  86.1544 169.2240 0043410 219.3387 140.4672 14.66098687683026
Epoch: 2026-06-11T18:42Z
TLE epoch observation values (Epoch: 2026-06-11T18:42:09.187Z)
Latitude
0.00008°
Longitude
-11.43245°
Altitude
700.311 km
Speed
7.493 km/s
True Right ascension
11h 16m 53s
True Declination
0° 00' 00"
Sunlit
Object was in daylight at epoch
Visualization orbit readout
Latitude
Unknown
Longitude
Unknown
Altitude
Unknown
Speed
Unknown
Apparent Right ascension
Unknown
Apparent Declination
Unknown
Sunlit
N/A
Visualization observer readout
Local Sidereal Time
07:09:26
Azimuth
Unknown
Elevation
Unknown
Doppler factor
Unknown
Orbital elements
Apogee altitude
701.073 km
Perigee altitude
639.877 km
Semi-major axis
7,048.612 km
Eccentricity
0.00434
Inclination
86.1544°
RAAN
169.224°
Arg. of periapsis
219.3387°
True anomaly
140.78251°
Mean anomaly
140.4672°
Eccentric anomaly
140.62499°
Mean motion
3.66765 °/min
Orbital period
98.16 mins
BSTAR
0.0011791
Loading maneuver chart data...
Computing Atmospheric mass density...

Documentation

Showing up to 5 results
|